User: anonymous   Login
Location: Champseau
(45.8333°N, 1.7667°E)
Time: 10:47:07
(UTC+00:00)
Language:

KKS-1 - Orbit

View from above orbital plane
View from above orbital plane
View from above satellite
View from above satellite

Ground track
Ground track

The orbit data is extracted from the following two-line orbital elements,

1 33499U 09002H   21334.93346757  .00000259  00000-0  45738-4 0  9993
2 33499  98.2425 208.3771 0008073 224.3771 135.6792 14.75745605690969
Epoch (UTC): 30 November 2021 22:24:11
Eccentricity: 0.0008073
inclination: 98.2425°
perigee height: 637 km
apogee height: 648 km
right ascension of ascending node: 208.3771°
argument of perigee: 224.3771°
revolutions per day: 14.75745605
mean anomaly at epoch: 135.6792°
orbit number at epoch: 69096

The dashed part of the orbit path shows where the satellite is in the earth's shadow,  

DLR